San Angelo, TX

9:32 AM CST on November 23, 2017 (GMT -0600)
San Angelo Regional-Mathis

Weather History for KSJT - August, 2014

Change the Weather History Date:

Thursday, August 21, 2014

  Actual Average Record
Temperature  
Mean Temperature 87 °F 82 °F  
Max Temperature 98 °F 94 °F 105 °F (1934)
Min Temperature 76 °F 71 °F 57 °F (1940)
Degree Days  
Heating Degree Days 0 0  
Month to date heating degree days 0 0  
Since 1 June heating degree days 0 0  
Since 1 July heating degree days 0 0  
Cooling Degree Days 22 17  
Month to date cooling degree days 390 387  
Year to date cooling degree days 2055 1874  
Since 1 June cooling degree days 1453 1414  
Growing Degree Days 36 (Base 50)    
Moisture  
Dew Point 68 °F    
Average Humidity 58    
Maximum Humidity 82    
Minimum Humidity 33    
Precipitation  
Precipitation 0.00 in 0.09 in 1.01 in (1965)
Month to date precipitation 0.63 1.35  
Year to date precipitation 11.96 13.16  
Sea Level Pressure  
Sea Level Pressure 29.93 in    
Wind  
Wind Speed 11 mph (South)    
Max Wind Speed 21 mph    
Max Gust Speed 28 mph    
Visibility 10 miles    
Events      
T = Trace of Precipitation, MM = Missing Value Source: NWS Daily Summary

Daily Weather History Graph

Daily Weather History Graph

Search for Another Location

Airport or City:

Trip Planner

Search our weather history database for the weather conditions in past years. The results will help you decide how hot, cold, wet, or windy it might be!

Date:

Astronomy

Aug. 21, 2014 Rise Set
Actual Time 7:11 AM CDT 8:18 PM CDT
Civil Twilight 6:46 AM CDT 8:43 PM CDT
Nautical Twilight 6:16 AM CDT 9:13 PM CDT
Astronomical Twilight 5:45 AM CDT 9:44 PM CDT
Moon 3:49 AM CDT (8/21) 5:43 PM CDT (8/21)
Length of Visible Light 13h 57m
Length of Day
13h 07m
Waning Crescent, 13% of the Moon is Illuminated
Aug 21
Waning Crescent
Aug 25
New
Sep 2
First Quarter
Sep 8
Full
Sep 15
Last Quarter

Hourly Weather History & Observations

Time (CDT) Temp. Heat Index Dew Point Humidity Pressure Visibility Wind Dir Wind Speed Gust Speed Precip Events Conditions
1:51 AM 80.1 °F 82.1 °F 66.0 °F 62% 29.88 in 10.0 mi SSE 10.4 mph - N/A   Clear
2:51 AM 80.1 °F 82.9 °F 69.1 °F 69% 29.88 in 10.0 mi SSE 10.4 mph - N/A   Clear
3:51 AM 79.0 °F - 70.0 °F 74% 29.88 in 10.0 mi SSE 12.7 mph - N/A   Clear
5:51 AM 77.0 °F - 70.0 °F 79% 29.91 in 10.0 mi SSE 10.4 mph - N/A   Clear
6:51 AM 75.9 °F - 70.0 °F 82% 29.93 in 10.0 mi SSE 6.9 mph - N/A   Scattered Clouds
7:51 AM 77.0 °F - 71.1 °F 82% 29.95 in 10.0 mi SSE 4.6 mph - N/A   Partly Cloudy
8:06 AM 78.1 °F - 71.1 °F 79% 30.02 in 10.0 mi South 6.9 mph - N/A   Mostly Cloudy
8:51 AM 81.0 °F 84.9 °F 71.1 °F 72% 29.96 in 10.0 mi South 9.2 mph - N/A   Mostly Cloudy
9:08 AM 81.0 °F 84.9 °F 71.1 °F 72% 30.04 in 10.0 mi South 10.4 mph - N/A   Scattered Clouds
9:44 AM 82.9 °F 87.5 °F 71.1 °F 67% 30.04 in 10.0 mi South 13.8 mph 23.0 mph N/A   Mostly Cloudy
10:30 AM 84.9 °F 89.4 °F 70.0 °F 61% 30.03 in 10.0 mi South 17.3 mph - N/A   Scattered Clouds
10:51 AM 86.0 °F 90.7 °F 70.0 °F 59% 29.96 in 10.0 mi South 16.1 mph 27.6 mph N/A   Clear
11:51 AM 88.0 °F 92.1 °F 69.1 °F 53% 29.96 in 10.0 mi South 13.8 mph 24.2 mph N/A   Clear
12:51 PM 91.9 °F 96.9 °F 69.1 °F 47% 29.94 in 10.0 mi South 13.8 mph 24.2 mph N/A   Scattered Clouds
1:51 PM 93.9 °F 97.5 °F 66.9 °F 41% 29.92 in 10.0 mi South 12.7 mph 24.2 mph N/A   Clear
2:51 PM 96.1 °F 98.8 °F 64.9 °F 36% 29.90 in 10.0 mi South 11.5 mph 20.7 mph N/A   Clear
4:51 PM 97.0 °F 98.3 °F 63.0 °F 32% 29.87 in 10.0 mi South 10.4 mph - N/A   Partly Cloudy
5:51 PM 96.1 °F 98.3 °F 64.0 °F 35% 29.87 in 10.0 mi South 15.0 mph 20.7 mph N/A   Partly Cloudy
6:51 PM 93.9 °F 96.1 °F 64.9 °F 38% 29.88 in 10.0 mi South 13.8 mph - N/A   Clear
7:51 PM 91.0 °F 93.0 °F 64.9 °F 42% 29.88 in 10.0 mi SSE 12.7 mph - N/A   Clear
8:51 PM 89.1 °F 90.3 °F 64.0 °F 43% 29.89 in 10.0 mi SSE 9.2 mph - N/A   Clear
9:51 PM 87.1 °F 88.3 °F 64.0 °F 46% 29.91 in 10.0 mi South 5.8 mph - N/A   Clear
10:51 PM 84.0 °F 84.9 °F 63.0 °F 49% 29.93 in 10.0 mi SSE 5.8 mph - N/A   Clear